RH
6 6 6 6 6 6 6 7 8 7 7 8 7 7 8 9 9 9 10 10 10 10 10 10 9 8 7 7 5 4 3 3 3 5 7 8 7 8 9 9 10 13 14 13 12 12 12 14 15 19 29 32 32 37 41 43 46 55 62 64 69 76 79 77 77 76 74 72 73 73 72 74 75 71 68 67 66 68 68 65 64 59 53 51 46 47 51 50
8 7 7 6 6 6 6 7 7 7 7 7 7 8 9 9 10 10 10 10 11 11 11 12 10 9 8 7 6 5 4 3 3 5 7 9 8 8 8 8 9 10 11 11 11 12 11 13 15 18 27 29 32 37 38 39 43 54 60 60 67 74 73 71 71 72 70 68 70 72 71 73 75 72 69 69 67 65 68 67 66 62 56 53 48 46 49 50
11 9 7 6 6 7 7 7 7 7 7 7 8 9 10 10 10 10 10 10 11 11 11 12 11 10 9 8 7 6 6 6 6 7 9 10 10 9 9 9 9 8 9 10 10 10 10 13 15 19 25 27 32 37 35 37 42 49 53 57 67 71 69 68 68 67 66 66 69 72 71 70 70 70 67 68 67 63 66 69 67 65 63 60 54 48 46 48
11 10 8 6 6 6 7 7 7 7 7 7 9 10 11 11 10 10 10 10 10 11 11 11 11 10 9 8 7 8 11 11 10 10 11 11 12 11 11 10 10 9 9 10 9 9 10 12 16 21 25 26 30 34 33 36 40 45 49 54 62 67 66 63 63 62 62 65 66 67 69 67 67 67 62 63 66 63 62 64 66 65 63 62 59 53 47 47
9 9 8 6 5 6 6 6 6 6 6 7 9 10 10 11 11 10 9 9 9 10 10 10 10 10 9 7 8 10 13 17 17 15 14 14 13 12 12 12 12 10 9 8 8 8 9 11 15 20 24 25 28 30 31 33 37 43 47 48 52 59 61 59 60 59 59 63 65 65 65 63 63 64 58 60 65 62 60 61 65 64 61 62 61 57 50 47
8 8 8 7 5 5 5 5 5 5 5 7 8 9 10 10 10 10 10 9 9 8 9 9 9 10 8 7 8 10 15 19 19 18 17 16 15 14 12 13 12 10 8 7 7 7 9 12 15 19 22 24 25 26 25 27 33 40 42 44 44 50 58 60 60 59 58 61 64 64 62 59 60 61 56 56 59 59 61 63 66 67 64 64 62 58 51 47
7 7 8 7 5 5 5 5 5 5 5 7 8 8 9 9 9 9 9 8 7 7 8 8 9 9 7 7 9 12 18 21 18 17 16 14 14 14 12 12 12 11 9 7 7 7 9 14 17 19 21 21 21 22 21 21 32 39 40 43 44 48 57 61 59 59 59 59 60 59 59 59 60 61 58 54 54 56 62 63 64 68 69 69 66 60 50 47
6 7 7 7 6 5 5 5 5 5 5 7 7 8 8 8 8 8 8 8 7 6 6 7 8 8 8 9 11 15 17 18 16 14 13 10 10 12 12 12 12 11 8 7 7 7 12 17 18 18 19 19 20 23 22 21 31 39 40 44 47 53 61 63 61 58 57 58 59 57 60 64 63 63 60 57 55 54 58 61 63 67 70 71 70 62 50 47
6 6 7 8 6 5 5 5 5 5 5 6 7 7 7 7 8 8 9 9 8 6 5 6 7 8 9 10 14 15 15 15 14 14 12 10 9 10 11 11 11 10 8 7 7 8 14 17 17 18 18 21 24 26 24 25 33 40 45 49 50 56 64 65 62 59 57 57 57 59 65 67 65 64 63 62 59 56 56 58 62 66 70 72 71 61 48 47
5 6 6 7 7 5 5 5 5 5 5 6 7 7 7 8 8 9 9 9 8 7 6 6 7 8 9 9 12 13 12 13 12 13 14 11 10 10 11 11 10 10 8 7 7 9 14 15 16 16 18 23 27 27 27 30 39 47 51 53 53 57 63 64 62 60 57 57 59 62 66 66 63 63 65 65 63 60 58 57 59 66 72 73 71 61 46 48
5 5 6 7 7 6 5 5 5 5 6 6 7 8 9 9 9 9 9 8 7 7 6 6 6 6 8 9 11 12 11 12 11 12 13 11 10 10 12 11 10 9 8 7 7 11 14 14 15 16 19 24 25 26 31 37 44 49 51 53 56 58 62 64 62 60 58 60 63 63 65 66 63 63 66 66 65 64 64 62 61 64 72 75 73 63 48 50
6 5 5 6 7 6 5 5 5 6 6 7 8 9 9 10 10 10 9 8 7 6 6 6 6 7 9 10 11 11 10 11 10 11 11 10 10 11 12 12 11 10 10 9 9 12 13 14 14 15 19 24 23 23 31 37 41 44 47 52 58 63 67 65 61 61 61 63 63 61 67 71 66 66 69 67 66 67 69 70 66 65 71 77 78 66 50 53
7 6 6 6 7 6 5 5 5 7 8 8 9 9 10 10 10 9 8 8 8 8 8 9 9 10 11 11 10 10 10 10 10 10 10 10 10 11 12 12 11 11 11 10 11 12 13 13 14 15 19 23 22 20 27 35 39 41 43 48 58 65 66 61 61 61 60 63 60 59 71 77 71 70 72 70 69 70 72 75 73 70 72 76 82 70 53 57
9 7 6 6 7 7 6 5 6 8 9 9 10 10 10 10 10 9 9 10 10 12 12 11 11 11 13 12 10 10 10 9 9 10 10 10 9 11 12 11 10 10 11 11 12 13 12 13 13 15 19 22 21 20 26 33 37 41 42 47 53 56 58 56 58 58 57 60 57 58 72 77 73 70 71 72 72 72 73 78 78 76 74 76 83 72 57 61
12 9 7 6 7 7 6 6 7 9 10 10 10 11 10 10 10 10 11 12 13 14 14 13 13 13 13 12 11 10 10 10 10 10 11 11 10 10 11 10 10 9 10 12 13 13 13 12 12 14 18 21 20 21 26 29 34 40 41 47 49 48 52 54 55 54 53 57 57 62 73 76 74 71 69 69 72 74 74 79 81 79 77 77 81 72 60 63
12 11 9 7 6 7 6 6 8 9 11 10 10 11 11 10 11 11 12 14 14 15 15 15 15 14 14 13 12 12 11 11 11 12 12 12 11 10 10 10 9 9 11 13 14 14 13 12 12 14 17 20 21 23 26 27 31 37 38 43 46 46 51 53 54 53 52 59 64 68 73 75 75 71 69 68 70 75 76 79 82 82 81 78 77 69 61 63
12 12 11 8 6 7 6 6 8 10 11 11 10 11 11 10 12 13 12 14 15 14 16 17 16 16 15 14 14 14 14 13 12 12 12 12 12 11 10 10 9 9 11 12 13 13 13 11 11 12 15 19 22 23 22 22 26 33 36 39 43 46 49 52 53 53 55 62 67 69 71 72 72 70 69 70 72 75 78 80 81 83 82 78 74 66 60 62
11 11 12 10 7 6 6 7 9 11 10 11 10 11 11 11 12 13 13 15 15 15 17 17 17 17 16 14 15 16 16 15 13 12 10 11 12 11 11 11 9 9 10 11 11 12 12 11 10 10 13 15 19 19 17 20 26 32 36 40 45 47 50 53 52 52 55 60 63 66 67 68 68 68 70 73 75 79 83 84 82 83 81 76 71 62 58 60
10 10 11 11 8 6 6 6 9 11 10 11 10 11 12 11 12 14 14 15 16 17 18 17 16 17 16 14 15 16 16 15 14 13 11 11 11 12 12 11 11 10 9 10 11 11 11 11 11 10 10 11 13 14 15 21 28 33 39 42 46 49 51 53 51 51 53 55 58 61 63 65 65 67 72 77 81 87 90 88 86 84 80 75 68 60 57 57
11 10 10 12 10 7 6 6 9 11 11 11 11 11 12 13 15 16 15 14 16 17 16 16 15 16 16 15 15 16 16 15 13 12 12 11 11 11 12 11 11 10 10 11 10 11 11 11 12 11 10 9 10 11 14 21 29 34 40 43 45 47 48 50 52 53 52 50 53 58 61 63 64 68 75 78 84 93 94 89 88 85 81 75 66 60 59 59
11 10 9 11 11 8 7 6 8 10 11 12 12 12 14 16 17 18 17 16 16 16 16 16 16 15 15 15 16 15 15 14 13 12 12 12 12 12 12 12 12 11 12 11 11 11 11 12 12 11 10 9 9 11 13 20 25 28 36 41 44 45 44 48 54 55 53 49 50 56 59 60 65 71 76 80 85 92 92 89 89 87 83 77 69 64 61 63
11 11 9 10 12 10 7 7 8 10 11 12 12 14 16 18 18 18 18 18 17 17 17 16 16 15 15 15 16 16 16 15 13 12 13 12 13 12 12 13 13 14 13 12 13 14 13 13 12 11 11 10 9 12 14 20 22 25 35 39 40 44 43 45 53 54 52 49 50 55 56 57 66 72 77 83 86 86 88 89 90 88 83 77 73 68 64 67
13 11 9 9 11 11 8 7 8 9 11 13 13 14 17 18 18 18 18 19 19 17 17 17 16 16 16 16 16 16 16 16 15 13 13 13 14 13 13 13 15 15 14 14 14 15 15 14 13 12 12 11 10 12 15 19 20 23 33 34 35 42 42 41 48 52 53 52 52 56 57 59 66 72 76 81 82 85 88 88 87 86 81 77 75 69 64 70
15 14 11 9 10 11 10 7 8 10 11 13 13 14 17 17 18 20 20 21 21 20 18 17 17 17 17 17 16 16 16 16 15 13 13 14 14 13 13 14 15 16 16 15 15 15 15 14 13 14 15 14 14 14 16 18 18 19 26 28 32 41 42 39 44 50 55 56 55 57 61 64 68 72 76 76 79 85 88 87 86 84 79 76 75 68 66 72
16 15 14 10 10 11 10 8 9 9 10 13 13 14 17 17 17 20 22 24 24 23 20 18 18 18 17 18 17 16 15 15 15 14 14 14 14 14 14 14 15 16 17 16 15 15 15 15 14 15 17 17 17 17 16 16 16 18 21 23 27 36 40 39 43 50 57 58 56 58 62 66 69 72 76 78 80 83 84 85 85 82 77 74 73 72 71 74
15 16 15 12 10 11 11 9 8 9 10 12 13 14 16 17 18 20 25 28 26 24 21 19 19 18 17 18 17 17 17 16 15 15 15 14 14 14 15 15 15 16 18 17 17 17 16 16 15 15 17 19 20 20 18 17 18 20 24 26 31 39 43 43 45 52 58 58 56 59 61 64 68 70 74 79 81 80 79 83 81 76 73 72 73 74 74 75
15 16 15 14 12 11 12 10 8 9 10 12 13 14 15 16 18 21 26 28 25 22 21 19 19 18 18 18 18 18 18 17 15 16 16 15 15 15 16 17 16 17 18 18 19 19 18 16 17 17 18 20 21 22 21 20 20 23 29 35 40 44 46 47 49 56 61 58 57 62 60 61 66 69 71 76 81 80 78 79 80 76 72 70 72 73 72 75
14 15 16 14 12 12 13 11 8 8 9 11 13 14 14 15 17 23 29 27 22 20 20 19 18 18 18 18 19 19 18 17 17 17 17 17 16 15 16 17 16 18 18 18 20 21 19 18 18 17 18 19 20 22 23 23 26 30 36 41 41 43 48 50 54 60 62 56 56 60 57 58 65 69 71 73 78 81 78 76 78 78 75 71 70 71 71 72
12 14 16 15 13 12 13 12 9 8 9 11 12 14 15 15 18 25 32 30 22 20 20 19 19 19 19 19 20 20 19 19 18 19 18 18 17 17 17 18 18 19 19 19 21 21 20 19 19 17 18 20 20 23 23 24 32 37 38 40 39 43 48 51 58 62 59 56 56 55 55 59 64 68 73 74 74 77 76 73 74 76 76 74 72 72 70 70
12 13 15 14 13 12 13 12 10 9 9 10 12 15 14 17 25 30 32 30 23 20 20 19 19 19 20 21 20 20 20 19 19 20 20 19 18 19 19 19 20 20 21 22 22 23 22 21 20 19 19 20 21 23 22 25 33 36 37 38 40 47 51 54 60 59 57 61 59 55 55 59 62 66 72 75 73 73 72 72 73 74 75 74 74 74 71 69
12 12 13 13 12 13 13 12 11 10 9 10 12 13 13 20 32 35 31 26 24 22 20 19 20 20 21 21 21 21 21 22 21 21 22 21 19 19 19 20 22 22 26 26 23 24 24 22 22 20 19 19 19 20 22 25 29 31 34 35 41 53 58 59 60 56 60 65 61 57 57 60 66 67 70 74 73 72 72 71 71 73 76 74 73 73 72 70
12 12 13 12 11 12 13 12 12 10 9 11 12 12 17 23 29 33 31 26 26 24 21 20 21 21 22 22 22 22 22 23 24 24 25 24 22 22 22 24 25 24 27 27 23 24 24 22 23 21 19 18 18 19 19 20 22 28 31 31 41 58 63 64 64 61 62 61 58 61 61 64 69 67 68 73 71 70 70 70 69 70 74 75 73 73 72 71
11 12 12 11 11 12 13 12 12 12 12 13 13 15 23 27 28 32 32 27 25 24 21 21 22 22 23 22 22 23 23 24 24 25 27 28 28 28 28 28 26 24 26 26 23 24 25 24 25 24 23 20 18 19 18 16 19 25 28 28 40 57 62 65 64 57 52 50 55 63 65 66 67 64 68 72 70 71 70 70 70 69 71 74 73 73 72 71
11 12 11 11 11 11 13 13 12 14 14 13 16 18 21 26 30 32 31 28 25 23 22 22 22 23 23 23 23 24 24 25 25 25 28 31 30 30 32 32 29 27 27 26 25 24 26 28 28 26 25 23 21 20 18 17 18 20 24 25 32 45 50 52 52 48 47 52 60 61 62 66 63 59 65 65 65 71 71 70 71 70 71 72 71 72 73 72
11 12 11 12 12 12 14 13 13 15 14 13 19 22 20 24 30 32 30 28 25 22 22 22 22 23 24 24 25 25 24 25 26 25 27 30 31 32 33 33 33 31 28 29 30 28 28 30 30 27 26 25 25 22 20 19 18 18 20 21 24 30 34 35 38 42 47 55 62 59 54 58 57 54 59 62 64 71 73 73 72 70 70 70 70 71 72 73
11 10 11 12 13 13 14 12 13 14 14 15 20 21 21 22 27 30 28 26 23 22 23 23 22 23 24 25 26 26 25 25 27 26 26 29 31 33 33 32 33 33 31 33 34 32 31 31 30 30 29 28 28 26 24 22 22 23 22 22 24 25 28 29 31 39 42 40 45 49 47 50 51 51 56 62 65 71 76 76 76 74 71 70 70 69 69 72
13 11 11 12 12 13 12 11 13 13 14 16 18 22 23 20 22 29 29 24 23 24 24 25 25 24 24 26 27 27 26 26 26 27 27 29 30 32 33 31 31 32 32 33 33 33 33 32 30 31 29 28 27 26 27 25 25 26 26 26 26 24 27 28 29 36 38 33 35 41 46 47 46 48 56 60 62 68 75 77 77 77 74 72 74 73 71 72
17 13 13 13 12 11 10 10 11 12 15 18 21 26 25 19 20 27 27 23 24 24 25 27 26 24 25 27 28 29 27 27 28 29 29 29 30 32 33 32 32 33 32 31 32 33 33 31 31 31 30 30 29 27 28 27 26 26 28 28 26 24 27 28 29 32 33 36 39 40 45 48 43 46 53 56 58 64 71 76 77 77 76 74 74 74 74 73
19 15 15 17 15 11 10 11 13 14 15 19 23 24 22 20 22 25 25 24 25 24 26 27 25 24 26 28 29 28 28 28 29 31 31 30 31 32 33 34 34 35 33 30 31 34 34 33 33 33 32 31 32 31 31 31 30 29 31 32 31 30 30 30 33 34 33 40 42 40 44 47 44 47 51 53 57 61 65 72 75 75 75 72 71 72 73 73
21 18 19 22 19 14 13 15 16 16 16 18 23 23 20 19 20 22 24 25 24 24 25 26 24 25 27 29 29 27 27 29 30 31 32 31 31 32 33 34 34 34 33 31 32 35 36 35 34 36 36 34 34 34 33 33 32 32 35 36 36 36 32 31 35 38 39 44 46 44 44 43 44 49 51 52 55 57 61 67 72 73 71 69 68 70 72 74
23 23 24 25 23 19 18 18 19 19 19 20 22 22 20 19 18 21 24 25 24 24 24 25 25 25 27 29 30 28 27 29 30 30 32 32 31 32 33 34 33 33 33 33 34 35 35 37 38 39 39 37 36 35 33 33 33 35 37 36 36 37 35 35 38 40 42 46 48 47 45 44 46 50 53 55 54 55 59 65 70 73 70 67 65 65 69 74
23 23 24 23 24 23 22 25 26 25 24 23 20 19 19 19 18 20 22 25 26 24 24 25 25 25 26 27 29 29 28 29 30 30 31 32 32 33 33 33 31 31 32 33 33 33 36 40 41 40 40 39 37 35 35 35 34 36 38 37 37 38 38 40 41 41 42 44 48 52 52 51 51 52 56 58 56 55 58 63 69 73 71 67 64 62 64 69
20 20 21 21 23 24 26 31 32 30 29 26 22 20 20 19 19 20 23 25 27 25 24 25 25 25 25 25 27 28 28 29 30 31 31 32 33 32 32 31 30 31 31 30 31 33 36 40 40 42 47 44 39 37 36 34 34 34 36 38 39 39 40 43 45 45 43 44 49 54 55 52 51 55 60 59 57 57 58 62 67 70 69 65 62 62 63 64
22 22 22 23 25 26 30 34 34 33 34 31 27 26 24 22 21 22 25 27 27 26 26 26 25 24 23 24 25 27 28 28 29 29 30 31 31 31 32 32 31 32 31 29 30 31 32 38 39 41 46 45 42 42 39 34 35 36 37 38 39 40 42 43 45 46 43 44 47 48 49 48 49 55 61 62 60 59 59 61 63 65 66 64 61 63 65 65
27 26 25 27 29 30 33 35 33 33 35 33 32 32 29 27 27 25 26 28 28 27 26 26 25 23 23 25 26 27 28 28 28 29 30 30 31 31 32 32 32 32 30 28 28 30 35 40 40 39 43 46 45 45 42 38 37 39 41 40 39 41 42 42 45 46 44 47 48 46 46 46 46 52 59 62 62 60 59 59 60 62 65 65 63 63 67 69
33 32 31 32 31 32 35 37 35 36 36 35 37 36 32 32 32 27 26 28 29 28 27 26 25 24 25 28 29 28 28 29 30 31 31 30 30 31 32 32 32 32 32 30 28 35 42 43 42 42 44 45 44 44 43 41 40 39 40 41 43 45 45 45 48 48 47 49 50 50 50 46 44 50 55 58 60 60 58 56 56 60 63 67 67 64 66 69
36 39 39 38 36 35 36 38 38 39 38 37 38 37 34 35 34 29 26 27 30 30 28 27 26 26 27 29 31 30 29 31 32 32 32 32 31 32 32 32 33 35 36 33 31 37 41 39 41 44 41 41 43 43 42 40 38 40 41 42 45 50 49 47 48 48 48 50 50 52 54 50 47 52 55 55 57 58 58 57 56 56 59 66 68 65 65 67
36 39 41 41 40 40 39 38 38 39 36 36 39 38 35 35 35 33 29 29 32 32 29 30 28 28 29 29 30 31 30 31 32 32 33 33 33 34 32 32 35 38 38 35 35 40 41 38 39 39 38 40 42 42 44 43 42 45 48 46 47 51 51 50 52 53 52 52 51 52 54 54 54 57 57 55 56 57 57 57 58 57 57 62 66 66 66 68
37 39 41 41 41 41 40 39 38 37 35 36 40 39 36 36 37 35 31 31 35 34 31 32 32 31 33 32 31 32 32 31 32 32 34 33 33 34 33 33 35 36 36 36 38 39 38 39 43 40 37 39 41 43 47 46 44 47 50 50 51 53 54 54 56 58 56 55 55 56 56 56 57 59 59 55 55 57 56 56 59 60 58 59 62 66 67 68
41 43 42 43 42 40 39 39 38 36 36 37 38 38 37 38 38 37 34 33 36 37 33 33 34 34 36 35 34 34 33 31 32 33 34 34 34 35 35 34 34 35 35 37 39 37 36 41 48 45 39 41 43 45 47 46 44 44 48 53 54 54 56 58 59 61 60 58 60 61 60 58 58 60 60 57 55 57 57 57 58 59 59 58 59 63 66 68
43 46 45 45 46 44 40 38 36 36 37 40 41 41 41 40 39 39 38 36 36 37 36 35 36 36 36 36 36 37 35 33 33 33 33 33 33 34 34 33 34 36 36 37 39 40 41 45 49 46 41 42 43 43 46 46 42 39 43 48 49 49 52 57 61 62 62 61 62 61 60 59 60 61 61 60 59 58 59 58 56 55 57 59 59 61 65 68
42 44 47 47 48 47 44 41 38 34 35 40 43 45 44 42 40 41 41 40 39 38 38 37 36 37 38 37 38 39 37 35 33 31 32 32 32 32 32 32 34 35 37 39 41 44 47 47 47 46 43 43 44 43 44 45 43 41 41 41 43 47 50 54 60 62 64 66 65 63 63 63 64 64 64 63 63 62 62 61 58 55 56 59 60 62 66 69